QPF
0.00 0.00 0.00 0.00 0.00 0.00 0.00 0.00 0.00 0.00 0.00 0.00 0.00 0.00 0.00 0.00 0.00 0.01 0.01 0.00 0.00 0.00 0.00 0.00 0.00 0.01 0.02 0.02 0.02 0.02 0.03 0.03 0.04 0.04 0.05 0.06 0.06 0.05 0.07 0.11 0.13 0.13 0.12 0.10
0.00 0.00 0.00 0.00 0.00 0.00 0.00 0.00 0.00 0.00 0.00 0.00 0.00 0.00 0.00 0.00 0.00 0.00 0.00 0.00 0.00 0.00 0.00 0.01 0.01 0.01 0.02 0.02 0.02 0.02 0.01 0.01 0.01 0.02 0.04 0.04 0.04 0.03 0.06 0.08 0.10 0.10 0.10 0.09
0.00 0.00 0.00 0.00 0.00 0.00 0.00 0.00 0.00 0.00 0.00 0.00 0.00 0.00 0.00 0.00 0.00 0.00 0.00 0.00 0.00 0.00 0.01 0.01 0.01 0.01 0.01 0.01 0.01 0.01 0.01 0.01 0.01 0.01 0.01 0.02 0.02 0.02 0.04 0.06 0.09 0.07 0.06 0.08
0.00 0.00 0.00 0.00 0.00 0.00 0.00 0.00 0.00 0.00 0.00 0.00 0.00 0.00 0.00 0.00 0.00 0.00 0.00 0.00 0.00 0.00 0.01 0.01 0.01 0.01 0.01 0.01 0.01 0.01 0.01 0.01 0.02 0.02 0.02 0.02 0.01 0.02 0.03 0.06 0.05 0.05 0.04 0.05
0.00 0.00 0.00 0.00 0.00 0.00 0.00 0.00 0.00 0.00 0.00 0.00 0.00 0.00 0.00 0.00 0.00 0.00 0.00 0.00 0.00 0.00 0.01 0.00 0.01 0.01 0.01 0.01 0.01 0.00 0.01 0.01 0.01 0.01 0.01 0.01 0.01 0.01 0.02 0.03 0.03 0.05 0.06 0.06
0.00 0.00 0.00 0.00 0.00 0.00 0.00 0.00 0.00 0.00 0.00 0.00 0.00 0.00 0.00 0.00 0.00 0.00 0.00 0.00 0.00 0.00 0.01 0.00 0.00 0.01 0.01 0.01 0.01 0.01 0.01 0.01 0.01 0.00 0.00 0.00 0.01 0.01 0.01 0.02 0.04 0.05 0.05 0.04
0.00 0.00 0.00 0.00 0.00 0.00 0.00 0.00 0.00 0.00 0.00 0.00 0.00 0.00 0.00 0.00 0.00 0.00 0.00 0.00 0.00 0.00 0.00 0.00 0.00 0.00 0.01 0.02 0.02 0.01 0.01 0.01 0.00 0.00 0.00 0.00 0.00 0.01 0.02 0.03 0.03 0.04 0.05 0.04
0.00 0.00 0.00 0.00 0.00 0.00 0.00 0.00 0.00 0.00 0.00 0.00 0.00 0.00 0.00 0.00 0.00 0.00 0.00 0.00 0.00 0.00 0.00 0.00 0.00 0.01 0.01 0.02 0.02 0.00 0.00 0.00 0.00 0.00 0.01 0.01 0.01 0.00 0.01 0.02 0.02 0.02 0.03 0.03
0.00 0.00 0.00 0.00 0.00 0.00 0.00 0.00 0.00 0.00 0.00 0.00 0.00 0.00 0.00 0.00 0.00 0.00 0.00 0.00 0.00 0.00 0.00 0.00 0.00 0.00 0.01 0.00 0.01 0.00 0.00 0.00 0.00 0.00 0.01 0.01 0.01 0.01 0.01 0.02 0.02 0.01 0.02 0.02
0.00 0.00 0.00 0.00 0.00 0.00 0.00 0.00 0.00 0.00 0.00 0.00 0.00 0.00 0.00 0.00 0.00 0.00 0.00 0.00 0.00 0.00 0.00 0.00 0.00 0.00 0.00 0.01 0.01 0.01 0.01 0.00 0.00 0.00 0.01 0.00 0.01 0.01 0.01 0.01 0.01 0.01 0.02 0.02
0.00 0.00 0.00 0.00 0.00 0.00 0.00 0.00 0.00 0.00 0.00 0.00 0.00 0.00 0.00 0.00 0.00 0.00 0.00 0.00 0.00 0.00 0.00 0.00 0.00 0.00 0.00 0.00 0.01 0.01 0.01 0.00 0.00 0.00 0.00 0.00 0.00 0.00 0.01 0.01 0.01 0.02 0.02 0.02
0.00 0.00 0.00 0.00 0.00 0.00 0.00 0.00 0.00 0.00 0.00 0.00 0.00 0.00 0.00 0.00 0.00 0.00 0.00 0.00 0.00 0.00 0.00 0.00 0.00 0.00 0.00 0.00 0.01 0.01 0.00 0.00 0.00 0.00 0.01 0.01 0.00 0.01 0.01 0.01 0.01 0.01 0.02 0.02
0.00 0.00 0.00 0.00 0.00 0.00 0.00 0.00 0.00 0.00 0.00 0.00 0.00 0.00 0.00 0.00 0.00 0.00 0.00 0.00 0.00 0.00 0.00 0.00 0.00 0.00 0.00 0.00 0.00 0.00 0.00 0.00 0.00 0.01 0.00 0.00 0.01 0.01 0.01 0.01 0.01 0.02 0.02 0.02
0.00 0.00 0.00 0.00 0.00 0.00 0.00 0.00 0.00 0.00 0.00 0.00 0.00 0.00 0.00 0.00 0.00 0.00 0.00 0.00 0.00 0.00 0.00 0.00 0.00 0.00 0.00 0.00 0.00 0.00 0.00 0.00 0.00 0.00 0.01 0.01 0.01 0.01 0.01 0.01 0.01 0.02 0.03 0.03
0.00 0.00 0.00 0.00 0.00 0.00 0.00 0.00 0.00 0.00 0.00 0.00 0.00 0.00 0.00 0.00 0.00 0.00 0.00 0.00 0.00 0.00 0.00 0.00 0.00 0.00 0.00 0.00 0.00 0.00 0.00 0.00 0.00 0.00 0.01 0.01 0.01 0.01 0.01 0.01 0.01 0.01 0.01 0.01
0.00 0.00 0.00 0.00 0.00 0.00 0.00 0.00 0.00 0.00 0.00 0.00 0.00 0.00 0.00 0.00 0.00 0.00 0.00 0.00 0.00 0.00 0.00 0.00 0.00 0.00 0.01 0.01 0.01 0.01 0.01 0.00 0.01 0.01 0.01 0.00 0.00 0.00 0.01 0.01 0.01 0.02 0.02 0.02
0.00 0.00 0.00 0.00 0.00 0.00 0.00 0.00 0.00 0.00 0.00 0.00 0.00 0.00 0.00 0.00 0.00 0.00 0.00 0.00 0.00 0.00 0.00 0.00 0.00 0.01 0.02 0.02 0.02 0.02 0.02 0.02 0.03 0.02 0.01 0.01 0.01 0.01 0.01 0.01 0.01 0.02 0.02 0.02
0.00 0.00 0.00 0.00 0.00 0.00 0.00 0.00 0.00 0.00 0.00 0.00 0.00 0.00 0.00 0.00 0.00 0.00 0.00 0.00 0.00 0.00 0.00 0.00 0.01 0.01 0.04 0.03 0.03 0.03 0.05 0.09 0.10 0.08 0.03 0.01 0.01 0.01 0.01 0.01 0.02 0.02 0.02 0.03
0.00 0.00 0.00 0.00 0.00 0.00 0.00 0.00 0.00 0.00 0.00 0.00 0.00 0.00 0.00 0.00 0.00 0.00 0.00 0.00 0.00 0.00 0.00 0.00 0.00 0.01 0.03 0.04 0.04 0.04 0.03 0.05 0.07 0.07 0.04 0.02 0.01 0.02 0.02 0.01 0.02 0.02 0.02 0.02
0.00 0.00 0.00 0.00 0.00 0.00 0.00 0.00 0.00 0.00 0.01 0.00 0.00 0.00 0.00 0.00 0.00 0.00 0.00 0.00 0.00 0.00 0.00 0.01 0.00 0.01 0.02 0.04 0.04 0.03 0.02 0.02 0.02 0.03 0.04 0.04 0.03 0.03 0.02 0.03 0.03 0.02 0.02 0.02
0.00 0.00 0.00 0.00 0.00 0.00 0.00 0.00 0.00 0.01 0.01 0.00 0.00 0.00 0.00 0.00 0.00 0.01 0.00 0.01 0.01 0.00 0.00 0.00 0.01 0.01 0.03 0.05 0.05 0.03 0.02 0.02 0.03 0.03 0.03 0.03 0.04 0.03 0.02 0.03 0.03 0.02 0.03 0.02
0.00 0.00 0.01 0.01 0.00 0.00 0.00 0.00 0.00 0.00 0.00 0.00 0.00 0.00 0.00 0.00 0.01 0.01 0.00 0.01 0.00 0.00 0.00 0.00 0.01 0.01 0.02 0.04 0.05 0.04 0.03 0.02 0.02 0.02 0.03 0.03 0.03 0.03 0.03 0.03 0.03 0.02 0.02 0.02
0.00 0.01 0.01 0.01 0.01 0.00 0.00 0.01 0.01 0.00 0.00 0.00 0.00 0.00 0.00 0.00 0.01 0.00 0.00 0.01 0.01 0.00 0.01 0.01 0.01 0.02 0.02 0.03 0.05 0.06 0.07 0.04 0.02 0.02 0.01 0.02 0.02 0.02 0.02 0.02 0.02 0.02 0.01 0.01
0.01 0.01 0.02 0.02 0.01 0.01 0.00 0.01 0.01 0.01 0.00 0.00 0.00 0.00 0.00 0.01 0.01 0.01 0.01 0.01 0.01 0.01 0.01 0.01 0.01 0.01 0.02 0.03 0.05 0.04 0.07 0.12 0.08 0.04 0.02 0.02 0.02 0.01 0.01 0.01 0.01 0.01 0.01 0.01
0.01 0.01 0.02 0.02 0.02 0.01 0.01 0.01 0.01 0.01 0.00 0.00 0.00 0.00 0.01 0.01 0.02 0.02 0.02 0.01 0.02 0.02 0.01 0.02 0.02 0.02 0.02 0.03 0.06 0.05 0.04 0.08 0.13 0.10 0.04 0.03 0.02 0.02 0.02 0.02 0.01 0.01 0.01 0.01
0.00 0.01 0.02 0.02 0.01 0.01 0.01 0.01 0.01 0.01 0.01 0.00 0.00 0.01 0.01 0.02 0.03 0.04 0.04 0.04 0.05 0.05 0.05 0.05 0.04 0.03 0.03 0.04 0.04 0.04 0.05 0.04 0.05 0.05 0.04 0.04 0.03 0.02 0.02 0.02 0.01 0.01 0.01 0.01
MSLP
1006.85 1007.28 1007.73 1008.18 1008.66 1009.17 1009.70 1010.23 1010.74 1011.18 1011.52 1011.73 1011.81 1011.76 1011.63 1011.46 1011.29 1011.17 1011.12 1011.14 1011.23 1011.35 1011.50 1011.65 1011.80 1011.95 1012.12 1012.32 1012.57 1012.86 1013.18 1013.51 1013.81 1014.06 1014.24 1014.34 1014.36 1014.34 1014.28 1014.23 1014.21 1014.22 1014.27 1014.35
1007.34 1007.64 1007.93 1008.25 1008.63 1009.07 1009.59 1010.15 1010.70 1011.20 1011.58 1011.80 1011.86 1011.76 1011.55 1011.27 1010.99 1010.77 1010.64 1010.61 1010.68 1010.82 1011.00 1011.19 1011.39 1011.57 1011.76 1011.98 1012.23 1012.52 1012.86 1013.22 1013.57 1013.89 1014.13 1014.30 1014.37 1014.38 1014.32 1014.25 1014.19 1014.16 1014.17 1014.23
1007.78 1007.95 1008.12 1008.32 1008.61 1009.01 1009.53 1010.12 1010.73 1011.28 1011.70 1011.93 1011.95 1011.77 1011.44 1011.02 1010.60 1010.25 1010.01 1009.92 1009.96 1010.11 1010.34 1010.59 1010.85 1011.09 1011.32 1011.57 1011.83 1012.14 1012.50 1012.89 1013.29 1013.66 1013.98 1014.21 1014.34 1014.37 1014.33 1014.24 1014.14 1014.07 1014.05 1014.08
1008.10 1008.19 1008.27 1008.40 1008.64 1009.04 1009.57 1010.21 1010.88 1011.48 1011.93 1012.14 1012.10 1011.82 1011.34 1010.75 1010.16 1009.64 1009.27 1009.09 1009.09 1009.25 1009.51 1009.83 1010.16 1010.48 1010.78 1011.07 1011.37 1011.71 1012.09 1012.51 1012.95 1013.38 1013.75 1014.04 1014.23 1014.30 1014.27 1014.18 1014.06 1013.95 1013.88 1013.89
1008.24 1008.30 1008.35 1008.46 1008.71 1009.14 1009.72 1010.43 1011.16 1011.81 1012.27 1012.46 1012.34 1011.93 1011.28 1010.50 1009.71 1009.00 1008.48 1008.18 1008.12 1008.26 1008.56 1008.94 1009.35 1009.75 1010.12 1010.47 1010.82 1011.19 1011.60 1012.05 1012.53 1013.00 1013.43 1013.78 1014.02 1014.13 1014.13 1014.05 1013.91 1013.77 1013.67 1013.64
1008.17 1008.25 1008.32 1008.48 1008.78 1009.27 1009.94 1010.72 1011.51 1012.20 1012.66 1012.81 1012.61 1012.08 1011.27 1010.29 1009.30 1008.40 1007.71 1007.28 1007.14 1007.25 1007.55 1007.98 1008.46 1008.94 1009.39 1009.80 1010.20 1010.60 1011.03 1011.51 1012.01 1012.52 1012.99 1013.39 1013.69 1013.85 1013.89 1013.82 1013.69 1013.54 1013.41 1013.35
1007.90 1008.03 1008.17 1008.40 1008.79 1009.37 1010.12 1010.97 1011.82 1012.54 1013.01 1013.13 1012.86 1012.21 1011.26 1010.13 1008.96 1007.89 1007.04 1006.48 1006.24 1006.30 1006.59 1007.04 1007.57 1008.10 1008.61 1009.07 1009.51 1009.94 1010.38 1010.87 1011.38 1011.91 1012.42 1012.87 1013.21 1013.44 1013.52 1013.50 1013.39 1013.24 1013.10 1013.01
1007.44 1007.65 1007.88 1008.21 1008.69 1009.35 1010.17 1011.09 1011.98 1012.72 1013.19 1013.29 1012.97 1012.26 1011.23 1009.99 1008.69 1007.50 1006.52 1005.85 1005.52 1005.51 1005.77 1006.21 1006.75 1007.32 1007.85 1008.35 1008.80 1009.24 1009.68 1010.16 1010.67 1011.21 1011.74 1012.22 1012.62 1012.90 1013.06 1013.09 1013.03 1012.91 1012.78 1012.68
1006.87 1007.15 1007.47 1007.89 1008.45 1009.17 1010.04 1010.98 1011.88 1012.63 1013.10 1013.19 1012.88 1012.16 1011.11 1009.83 1008.49 1007.23 1006.18 1005.44 1005.03 1004.95 1005.15 1005.56 1006.08 1006.64 1007.18 1007.67 1008.12 1008.55 1008.98 1009.43 1009.93 1010.45 1010.99 1011.50 1011.94 1012.29 1012.52 1012.63 1012.64 1012.57 1012.48 1012.38
1006.29 1006.62 1007.01 1007.48 1008.09 1008.83 1009.69 1010.61 1011.49 1012.22 1012.68 1012.79 1012.51 1011.85 1010.85 1009.63 1008.32 1007.08 1006.02 1005.23 1004.77 1004.62 1004.76 1005.11 1005.58 1006.10 1006.62 1007.09 1007.52 1007.92 1008.32 1008.74 1009.21 1009.71 1010.24 1010.76 1011.25 1011.66 1011.97 1012.17 1012.26 1012.27 1012.23 1012.17
1005.78 1006.15 1006.56 1007.06 1007.65 1008.37 1009.17 1010.02 1010.83 1011.50 1011.94 1012.08 1011.86 1011.29 1010.42 1009.33 1008.14 1006.98 1005.97 1005.20 1004.71 1004.51 1004.58 1004.86 1005.26 1005.73 1006.20 1006.64 1007.04 1007.41 1007.78 1008.16 1008.59 1009.07 1009.58 1010.11 1010.62 1011.09 1011.48 1011.77 1011.96 1012.06 1012.09 1012.08
1005.41 1005.80 1006.22 1006.70 1007.25 1007.88 1008.57 1009.29 1009.98 1010.56 1010.97 1011.12 1010.98 1010.54 1009.83 1008.92 1007.90 1006.89 1005.98 1005.26 1004.77 1004.54 1004.55 1004.75 1005.08 1005.49 1005.91 1006.32 1006.69 1007.04 1007.38 1007.74 1008.14 1008.58 1009.08 1009.60 1010.13 1010.64 1011.09 1011.47 1011.76 1011.96 1012.08 1012.14
1005.23 1005.62 1006.04 1006.48 1006.95 1007.45 1007.99 1008.54 1009.07 1009.53 1009.86 1010.01 1009.94 1009.63 1009.10 1008.40 1007.58 1006.75 1005.97 1005.33 1004.87 1004.62 1004.58 1004.72 1004.98 1005.33 1005.72 1006.10 1006.47 1006.82 1007.16 1007.51 1007.89 1008.31 1008.78 1009.29 1009.82 1010.35 1010.85 1011.30 1011.68 1011.97 1012.19 1012.33
1005.23 1005.64 1006.05 1006.44 1006.81 1007.17 1007.53 1007.89 1008.23 1008.53 1008.75 1008.87 1008.84 1008.65 1008.29 1007.78 1007.17 1006.52 1005.89 1005.35 1004.93 1004.68 1004.61 1004.69 1004.91 1005.22 1005.59 1005.97 1006.36 1006.73 1007.09 1007.45 1007.83 1008.24 1008.69 1009.18 1009.71 1010.24 1010.77 1011.27 1011.72 1012.09 1012.39 1012.61
1005.36 1005.80 1006.21 1006.56 1006.84 1007.05 1007.23 1007.38 1007.51 1007.63 1007.73 1007.78 1007.77 1007.65 1007.44 1007.10 1006.68 1006.21 1005.72 1005.28 1004.92 1004.68 1004.59 1004.64 1004.83 1005.12 1005.48 1005.89 1006.31 1006.73 1007.13 1007.53 1007.93 1008.35 1008.79 1009.26 1009.76 1010.29 1010.83 1011.35 1011.84 1012.28 1012.65 1012.94
1005.56 1006.04 1006.46 1006.78 1006.97 1007.06 1007.06 1007.01 1006.94 1006.88 1006.83 1006.80 1006.77 1006.71 1006.59 1006.40 1006.14 1005.82 1005.47 1005.12 1004.82 1004.61 1004.51 1004.55 1004.71 1005.00 1005.38 1005.82 1006.29 1006.77 1007.24 1007.70 1008.13 1008.57 1009.01 1009.46 1009.95 1010.46 1010.98 1011.52 1012.03 1012.51 1012.93 1013.27
1005.74 1006.26 1006.69 1006.99 1007.12 1007.10 1006.95 1006.73 1006.48 1006.24 1006.06 1005.94 1005.87 1005.83 1005.79 1005.72 1005.59 1005.41 1005.17 1004.92 1004.68 1004.50 1004.40 1004.43 1004.59 1004.88 1005.27 1005.75 1006.28 1006.82 1007.36 1007.88 1008.36 1008.83 1009.28 1009.73 1010.20 1010.69 1011.19 1011.72 1012.24 1012.73 1013.18 1013.56
1005.81 1006.36 1006.80 1007.07 1007.16 1007.05 1006.80 1006.44 1006.04 1005.68 1005.38 1005.18 1005.08 1005.05 1005.07 1005.09 1005.08 1005.01 1004.89 1004.73 1004.55 1004.41 1004.33 1004.35 1004.50 1004.78 1005.18 1005.68 1006.25 1006.85 1007.45 1008.03 1008.57 1009.07 1009.54 1010.00 1010.46 1010.93 1011.42 1011.92 1012.43 1012.93 1013.38 1013.78
1005.71 1006.25 1006.68 1006.93 1006.98 1006.82 1006.49 1006.05 1005.57 1005.11 1004.75 1004.50 1004.38 1004.38 1004.45 1004.56 1004.66 1004.70 1004.69 1004.62 1004.51 1004.40 1004.34 1004.36 1004.49 1004.75 1005.14 1005.64 1006.22 1006.85 1007.50 1008.12 1008.71 1009.25 1009.75 1010.23 1010.69 1011.16 1011.63 1012.12 1012.61 1013.09 1013.55 1013.95
1005.41 1005.90 1006.29 1006.51 1006.53 1006.35 1005.99 1005.52 1005.00 1004.52 1004.14 1003.89 1003.80 1003.84 1003.98 1004.18 1004.38 1004.54 1004.63 1004.65 1004.61 1004.55 1004.50 1004.51 1004.61 1004.84 1005.19 1005.66 1006.23 1006.85 1007.51 1008.16 1008.78 1009.37 1009.90 1010.40 1010.88 1011.35 1011.82 1012.30 1012.77 1013.24 1013.67 1014.06
1004.93 1005.33 1005.66 1005.84 1005.84 1005.65 1005.31 1004.86 1004.38 1003.93 1003.59 1003.39 1003.35 1003.46 1003.68 1003.98 1004.28 1004.55 1004.75 1004.86 1004.89 1004.87 1004.83 1004.83 1004.90 1005.07 1005.36 1005.77 1006.29 1006.89 1007.53 1008.18 1008.82 1009.43 1010.00 1010.53 1011.03 1011.52 1011.99 1012.45 1012.91 1013.36 1013.77 1014.15
1004.31 1004.60 1004.84 1004.98 1004.97 1004.81 1004.53 1004.15 1003.75 1003.40 1003.15 1003.03 1003.08 1003.28 1003.60 1003.99 1004.40 1004.77 1005.06 1005.26 1005.35 1005.37 1005.34 1005.32 1005.34 1005.45 1005.67 1006.00 1006.45 1006.99 1007.59 1008.22 1008.86 1009.48 1010.07 1010.63 1011.15 1011.65 1012.12 1012.58 1013.02 1013.45 1013.85 1014.21
1003.62 1003.79 1003.95 1004.05 1004.06 1003.96 1003.77 1003.51 1003.25 1003.02 1002.90 1002.90 1003.06 1003.35 1003.76 1004.24 1004.73 1005.18 1005.55 1005.81 1005.96 1006.01 1005.99 1005.95 1005.94 1005.98 1006.11 1006.36 1006.72 1007.18 1007.72 1008.31 1008.92 1009.54 1010.13 1010.70 1011.24 1011.74 1012.21 1012.66 1013.09 1013.50 1013.88 1014.22
1002.94 1003.00 1003.10 1003.19 1003.24 1003.23 1003.17 1003.06 1002.95 1002.89 1002.91 1003.04 1003.30 1003.68 1004.16 1004.69 1005.24 1005.74 1006.16 1006.47 1006.65 1006.73 1006.72 1006.67 1006.61 1006.60 1006.66 1006.82 1007.09 1007.46 1007.93 1008.46 1009.03 1009.61 1010.19 1010.75 1011.28 1011.78 1012.24 1012.68 1013.09 1013.47 1013.84 1014.17
1002.35 1002.34 1002.41 1002.52 1002.64 1002.74 1002.82 1002.88 1002.95 1003.04 1003.20 1003.45 1003.79 1004.23 1004.75 1005.31 1005.87 1006.39 1006.83 1007.15 1007.36 1007.45 1007.45 1007.39 1007.31 1007.26 1007.26 1007.35 1007.53 1007.82 1008.21 1008.66 1009.17 1009.70 1010.24 1010.76 1011.26 1011.74 1012.17 1012.59 1012.98 1013.35 1013.70 1014.04
1001.91 1001.87 1001.95 1002.11 1002.32 1002.55 1002.78 1003.00 1003.23 1003.47 1003.75 1004.08 1004.48 1004.95 1005.47 1006.01 1006.55 1007.05 1007.47 1007.79 1008.00 1008.10 1008.11 1008.05 1007.97 1007.89 1007.85 1007.89 1008.01 1008.22 1008.52 1008.90 1009.32 1009.78 1010.25 1010.72 1011.17 1011.59 1012.00 1012.38 1012.75 1013.11 1013.46 1013.82
Thickness
5841 5837 5832 5838 5845 5846 5841 5835 5829 5831 5840 5832 5827 5827 5829 5830 5826 5822 5819 5817 5814 5811 5814 5812 5808 5805 5801 5797 5792 5789 5786 5783 5781 5779 5777 5775 5774 5773 5773 5772 5769 5767 5766 5765
5826 5826 5839 5845 5842 5840 5836 5829 5828 5829 5836 5832 5827 5828 5835 5833 5829 5829 5825 5821 5819 5816 5814 5812 5810 5807 5803 5799 5795 5792 5789 5787 5784 5782 5779 5777 5776 5775 5774 5772 5769 5767 5766 5765
5821 5831 5839 5833 5829 5828 5830 5829 5828 5824 5828 5833 5827 5822 5827 5833 5834 5833 5831 5829 5827 5822 5818 5815 5812 5809 5807 5803 5800 5798 5793 5790 5787 5784 5782 5779 5776 5774 5774 5771 5769 5767 5766 5764
5821 5827 5826 5825 5825 5828 5820 5835 5832 5826 5820 5821 5823 5813 5825 5831 5829 5830 5831 5831 5830 5828 5824 5821 5817 5813 5810 5808 5806 5801 5797 5793 5789 5786 5783 5779 5775 5773 5772 5771 5770 5768 5765 5764
5811 5819 5819 5817 5825 5829 5827 5834 5830 5827 5822 5821 5822 5816 5828 5833 5826 5831 5835 5836 5835 5834 5830 5826 5822 5818 5816 5814 5810 5805 5799 5794 5791 5788 5785 5780 5778 5776 5775 5773 5769 5766 5765 5763
5814 5823 5825 5825 5830 5831 5828 5825 5822 5823 5823 5803 5817 5813 5818 5835 5833 5838 5841 5841 5839 5837 5834 5830 5827 5823 5819 5816 5812 5808 5800 5795 5792 5788 5786 5781 5778 5775 5772 5769 5767 5766 5765 5763
5795 5807 5819 5825 5815 5818 5820 5810 5796 5792 5795 5801 5821 5813 5823 5843 5848 5846 5844 5844 5843 5841 5836 5831 5826 5822 5818 5815 5812 5808 5802 5796 5793 5790 5786 5783 5779 5776 5772 5769 5767 5765 5764 5763
5783 5786 5806 5816 5816 5811 5815 5816 5797 5785 5791 5806 5810 5809 5831 5849 5851 5851 5850 5848 5845 5842 5838 5833 5830 5825 5821 5817 5813 5809 5803 5798 5795 5791 5787 5784 5781 5779 5776 5771 5769 5767 5765 5763
5789 5788 5808 5814 5822 5820 5808 5813 5827 5811 5805 5801 5810 5817 5832 5844 5844 5846 5846 5845 5842 5841 5838 5834 5832 5828 5823 5819 5815 5811 5805 5799 5796 5793 5789 5785 5781 5778 5775 5772 5769 5767 5764 5763
5795 5783 5795 5805 5812 5812 5819 5819 5811 5802 5784 5784 5800 5807 5818 5827 5833 5840 5841 5842 5841 5841 5838 5835 5832 5828 5825 5821 5817 5812 5807 5801 5797 5793 5790 5786 5781 5777 5774 5771 5767 5765 5763 5760
5793 5780 5783 5791 5791 5796 5800 5803 5805 5805 5802 5790 5789 5808 5840 5837 5839 5839 5842 5844 5843 5840 5838 5835 5832 5828 5825 5821 5817 5811 5806 5801 5797 5793 5789 5785 5782 5777 5773 5769 5767 5764 5761 5758
5783 5782 5774 5782 5798 5806 5804 5803 5801 5788 5785 5794 5798 5811 5844 5843 5844 5843 5842 5842 5842 5840 5838 5834 5831 5827 5823 5819 5816 5811 5806 5801 5797 5793 5788 5784 5780 5776 5772 5768 5765 5762 5759 5756
5772 5767 5756 5761 5773 5786 5790 5798 5801 5800 5794 5791 5790 5807 5836 5837 5838 5840 5839 5838 5836 5834 5833 5831 5826 5822 5819 5816 5813 5809 5805 5801 5797 5792 5787 5782 5777 5773 5769 5766 5763 5760 5757 5754
5767 5762 5760 5761 5773 5782 5779 5785 5792 5792 5785 5787 5794 5809 5822 5826 5828 5832 5833 5833 5832 5830 5828 5825 5821 5818 5816 5814 5810 5806 5802 5799 5794 5789 5784 5779 5774 5771 5767 5764 5761 5757 5754 5751
5758 5752 5758 5769 5779 5782 5780 5781 5785 5785 5792 5790 5798 5805 5818 5823 5824 5827 5828 5828 5827 5824 5823 5821 5817 5815 5813 5810 5806 5803 5799 5794 5790 5785 5780 5775 5772 5768 5764 5760 5757 5754 5751 5748
5747 5744 5749 5752 5765 5769 5770 5778 5781 5784 5790 5793 5797 5802 5822 5824 5824 5821 5822 5822 5821 5821 5820 5819 5816 5812 5809 5807 5803 5800 5795 5790 5785 5780 5776 5772 5768 5764 5760 5757 5753 5750 5746 5743
5736 5734 5734 5742 5754 5754 5752 5773 5778 5782 5790 5791 5788 5801 5813 5811 5812 5814 5816 5818 5818 5819 5818 5816 5814 5811 5808 5805 5802 5796 5792 5787 5782 5775 5771 5768 5764 5761 5757 5754 5750 5746 5742 5738
5723 5724 5729 5736 5735 5722 5763 5786 5785 5782 5787 5793 5796 5802 5806 5807 5811 5816 5818 5815 5815 5816 5815 5814 5813 5810 5807 5804 5799 5794 5789 5783 5777 5771 5768 5765 5761 5757 5753 5750 5745 5741 5738 5733
5721 5717 5722 5727 5725 5736 5756 5769 5773 5769 5772 5786 5787 5792 5799 5805 5805 5807 5813 5814 5813 5813 5813 5813 5812 5809 5805 5801 5796 5791 5785 5780 5774 5769 5765 5762 5758 5754 5749 5745 5741 5737 5733 5729
5710 5714 5715 5717 5715 5721 5747 5765 5773 5766 5758 5779 5781 5782 5788 5791 5787 5798 5808 5808 5807 5808 5809 5809 5808 5805 5800 5797 5793 5787 5783 5778 5773 5769 5763 5759 5755 5750 5745 5741 5737 5733 5729 5724
5698 5700 5705 5709 5713 5733 5751 5760 5760 5741 5751 5770 5774 5777 5780 5781 5786 5795 5799 5799 5799 5800 5802 5803 5801 5798 5794 5792 5788 5782 5778 5774 5771 5766 5759 5754 5750 5745 5741 5736 5732 5728 5723 5718
5699 5701 5700 5705 5706 5720 5743 5748 5743 5746 5758 5763 5766 5771 5773 5776 5781 5786 5788 5789 5791 5792 5794 5795 5793 5791 5789 5787 5783 5777 5772 5770 5766 5760 5754 5748 5744 5741 5737 5731 5726 5722 5717 5712
5699 5705 5711 5711 5716 5727 5737 5738 5742 5747 5749 5753 5758 5763 5767 5769 5772 5775 5777 5780 5783 5785 5787 5788 5786 5783 5782 5780 5778 5772 5768 5764 5760 5754 5749 5744 5739 5735 5731 5726 5721 5717 5713 5711
5693 5697 5701 5702 5713 5719 5726 5731 5735 5739 5742 5748 5752 5756 5759 5760 5763 5765 5767 5770 5773 5775 5778 5779 5777 5774 5773 5773 5771 5768 5763 5758 5753 5748 5743 5737 5733 5728 5724 5720 5718 5714 5710 5707
5685 5688 5692 5695 5704 5710 5717 5722 5726 5731 5736 5741 5745 5748 5750 5752 5754 5756 5758 5761 5763 5766 5768 5770 5768 5765 5764 5763 5761 5760 5756 5752 5746 5740 5736 5731 5728 5724 5718 5714 5710 5707 5703 5700
5681 5683 5685 5691 5698 5703 5707 5714 5720 5722 5726 5731 5734 5737 5742 5744 5746 5749 5751 5754 5755 5756 5758 5759 5758 5757 5755 5753 5751 5750 5748 5745 5740 5734 5730 5727 5724 5718 5713 5706 5699 5691 5690 5685